Weather History for Mobridge, SD

Change the Weather History Date:

Monday, November 4, 2013

  Actual Average Record
Temperature  
Mean Temperature 34 °F 39 °F  
Max Temperature 44 °F 50 °F 77 °F (1917)
Min Temperature 24 °F 27 °F -2 °F (1935)
Degree Days  
Heating Degree Days 31 26  
Month to date heating degree days 108 102  
Since 1 July heating degree days 870 876  
Cooling Degree Days 0 0  
Month to date cooling degree days 0 0  
Year to date cooling degree days 700 644  
Moisture  
Dew Point 23 °F    
Average Humidity 60    
Maximum Humidity 79    
Minimum Humidity 40    
Precipitation  
Precipitation 0.00 in 0.03 in 0.54 in (1948)
Month to date precipitation T 0.13  
Year to date precipitation 22.88 17.08  
Snow  
Snow 0.00 in - - ()
Month to date snowfall 0.0  
Since 1 July snowfall 1.0  
Snow Depth 0.00 in    
Sea Level Pressure  
Sea Level Pressure 29.95 in    
Wind  
Wind Speed 11 mph (WNW)    
Max Wind Speed 16 mph    
Max Gust Speed 22 mph    
Visibility 10 miles    
Events      
T = Trace of Precipitation, MM = Missing Value Source: NWS Daily Summary

Daily Weather History Graph

Daily Weather History Graph

Search for Another Location

Airport:

Trip Planner

Search our weather history database for the weather conditions in past years. The results will help you decide how hot, cold, wet, or windy it might be!

Date:

Astronomy

Nov. 04, 2013 Rise Set
Actual Time 7:25 AM CST 5:23 PM CST
Civil Twilight 6:54 AM CST 5:55 PM CST
Nautical Twilight 6:19 AM CST 6:30 PM CST
Astronomical Twilight 5:44 AM CST 7:04 PM CST
Moon 8:41 AM CST (11/4) 6:26 PM CST (11/4)
Length of Visible Light 11h 00m
Length of Day
9h 58m
New Moon, 2% of the Moon is Illuminated
Nov 4
New Moon
Nov 9
First Quarter
Nov 17
Full
Nov 25
Last Quarter
Dec 2
New

Hourly Weather History & Observations

Time (CST) Temp. Windchill Dew Point Humidity Pressure Visibility Wind Dir Wind Speed Gust Speed Precip Events Conditions
12:52 AM 41.0 °F 33.9 °F 32.0 °F 70% 29.73 in 10.0 mi WNW 12.7 mph - N/A   Clear
1:52 AM 39.0 °F 31.0 °F 27.0 °F 62% 29.76 in 10.0 mi WNW 13.8 mph 19.6 mph N/A   Partly Cloudy
2:52 AM 37.9 °F 29.6 °F 27.0 °F 65% 29.78 in 10.0 mi WNW 13.8 mph - N/A   Clear
3:52 AM 37.0 °F 30.4 °F 28.0 °F 70% 29.80 in 10.0 mi WNW 9.2 mph - N/A   Clear
4:52 AM 37.0 °F 29.3 °F 27.0 °F 67% 29.82 in 10.0 mi NNW 11.5 mph - N/A   Partly Cloudy
5:52 AM 37.0 °F 27.7 °F 26.1 °F 65% 29.85 in 10.0 mi NW 16.1 mph - N/A   Overcast
6:52 AM 35.1 °F 25.5 °F 25.0 °F 67% 29.86 in 10.0 mi NW 15.0 mph - N/A   Partly Cloudy
7:52 AM 35.1 °F 26.4 °F 25.0 °F 67% 29.89 in 10.0 mi West 12.7 mph - N/A   Overcast
8:52 AM 36.0 °F 27.5 °F 25.0 °F 64% 29.92 in 10.0 mi NW 12.7 mph - N/A   Overcast
9:52 AM 37.0 °F 29.8 °F 25.0 °F 62% 29.95 in 10.0 mi WNW 10.4 mph 20.7 mph N/A   Mostly Cloudy
10:52 AM 39.0 °F 29.9 °F 24.1 °F 55% 29.96 in 10.0 mi WNW 17.3 mph - N/A   Partly Cloudy
11:52 AM 39.9 °F 31.8 °F 23.0 °F 51% 29.96 in 10.0 mi WNW 15.0 mph 24.2 mph N/A   Clear
12:52 PM 42.1 °F 34.2 °F 23.0 °F 47% 29.95 in 10.0 mi WNW 16.1 mph 24.2 mph N/A   Clear
1:52 PM 44.1 °F 36.5 °F 23.0 °F 43% 29.95 in 10.0 mi WNW 17.3 mph - N/A   Clear
2:52 PM 44.1 °F 37.1 °F 21.0 °F 40% 29.96 in 10.0 mi WNW 15.0 mph - N/A   Clear
3:52 PM 43.0 °F 35.7 °F 21.0 °F 42% 29.98 in 10.0 mi WNW 15.0 mph 20.7 mph N/A   Clear
4:52 PM 41.0 °F 33.5 °F 21.0 °F 45% 29.99 in 10.0 mi NW 13.8 mph - N/A   Clear
5:52 PM 35.1 °F 28.6 °F 19.9 °F 54% 30.04 in 10.0 mi WNW 8.1 mph - N/A   Clear
6:52 PM 32.0 °F 24.8 °F 19.0 °F 59% 30.07 in 10.0 mi NW 8.1 mph - N/A   Clear
7:52 PM 30.9 °F 23.5 °F 19.9 °F 64% 30.09 in 10.0 mi WNW 8.1 mph - N/A   Clear
8:52 PM 28.9 °F 22.8 °F 19.9 °F 69% 30.10 in 10.0 mi WNW 5.8 mph - N/A   Clear
9:52 PM 26.1 °F - 19.0 °F 75% 30.14 in 10.0 mi Calm Calm - N/A   Clear
10:52 PM 30.0 °F - 21.0 °F 69% 30.15 in 10.0 mi Calm Calm - N/A   Overcast
11:52 PM 32.0 °F 25.6 °F 21.9 °F 66% 30.16 in 10.0 mi NW 6.9 mph - N/A   Overcast